{"data":{"norad_id":61007,"epoch":"2026-09-21T07:05:02.263776Z","epoch_age_seconds":123235,"freshness":"FRESH","line1":"1 61007U 24158T   26264.29516509  .00002574  00000+0  87269-4 0  9994","line2":"2 61007  53.1592 217.8177 0001330  91.6201 268.4954 15.34405026115791","mean_motion":15.34405026,"eccentricity":0.000133,"inclination_deg":53.1592,"raan_deg":217.8177,"arg_perigee_deg":91.6201,"mean_anomaly_deg":268.4954,"bstar":8.7269e-5,"rev_number":11579,"period_min":93.847450679557,"perigee_km":461.77847215154,"apogee_km":463.59813168185,"semimajor_km":6840.8253019167,"source":"CELESTRAK","updated_at":"2026-09-22T09:00:49.298109Z"}}